Weather Roundup
Issued by NWS Springfield, MO

Home | Current Version | Previous Version | Text Only | Print | Product List | Glossary On
Versions: 1 2 3 4 5 6 7 8 9 10 11 12 13 14 15 16 17 18 19 20 21 22 23 24 25 26 27 28 29 30 31 32 33 34 35 36 37 38 39 40 41 42 43 44 45 46 47 48 49 50
000
NZUS99 KSGF 210507
HRRSGF

HOURLY WEATHER
NATIONAL WEATHER SERVICE SPRINGFIELD MO
1200 AM CDT TUE APR 21 2015

......SGF CWA......

CITY           SKY/WX    TMP DP  RH WIND       PRES   REMARKS
SPRINGFIELD    CLEAR     42  32  67 SW8       29.92S
JOPLIN         CLEAR     43  36  76 S7        29.93F
WEST PLAINS    CLEAR     44  29  55 SW5       29.94S
ROLLA          CLEAR     41  27  57 SW10      29.86S
OSAGE BEACH    CLEAR     46  27  46 SW6       29.88S
BRANSON        CLEAR     46  32  57 CALM      29.96S

......SURROUNDING SGF CWA......

CITY           SKY/WX    TMP DP  RH WIND       PRES   REMARKS
CHANUTE        CLEAR     45  38  76 SW7       29.91S
PARSONS        CLEAR     44  42  93 CALM      29.93F
COFFEYVILLE    CLEAR     47  38  71 SW7       29.93S
EMPORIA        CLOUDY    48  35  60 SW10      29.89F
GROVE OK       CLEAR     46  37  71 CALM      29.96S
ROGERS AR      CLEAR     45  35  68 S8        29.97S
SILOAM SPRINGS CLEAR     45  30  57 S5        29.98S
HARRISON AR    CLEAR     48  30  49 SW3       29.96F
NEAR YELLVILLE CLEAR     46 N/A N/A W6        29.94F

......KANSAS AND MISSOURI......

CITY           SKY/WX    TMP DP  RH WIND       PRES   REMARKS
KANSAS CTY INT MOCLDY    45  29  53 SW7       29.85S
DOWNTOWN KC    PTCLDY    51  29  42 SW7       29.85S
COLUMBIA       CLEAR     45  28  51 SW8       29.83F
SEDALIA        PTCLDY    47  30  51 SW9       29.87S
ST JOSEPH      CLEAR     45  31  58 W8        29.84S
ST LOUIS       FAIR      49  30  48 SW10      29.83F
SPIRIT OF STL  CLEAR     48  30  49 SW8       29.83F
KIRKSVILLE     CLEAR     45  27  49 SW8       29.78S
WICHITA        MOCLDY    49  38  65 SW5       29.91F
TOPEKA         CLEAR     46  32  58 W3        29.88R
OLATHE         CLEAR     47  30  51 SW6       29.86S

......TENNESSEE......

CITY           SKY/WX    TMP DP  RH WIND       PRES   REMARKS
MEMPHIS        CLEAR     55  37  50 NW8       29.96R
NASHVILLE      CLOUDY    52  42  69 SW3       29.90R

......ARKANSAS.......

CITY           SKY/WX    TMP DP  RH WIND       PRES   REMARKS
FAYETTEVILLE   CLEAR     41  38  89 S5        29.98S
FT SMITH       CLEAR     50  42  74 SW3       29.99S
LITTLE ROCK    CLEAR     56  33  42 W5        30.01R

......OKLAHOMA.......

CITY           SKY/WX    TMP DP  RH WIND       PRES   REMARKS
TULSA          PTCLDY    52  40  63 S6        29.96R
PONCA CITY     PTCLDY    50  40  68 S3        29.95S
MCALESTER      PTCLDY    44  40  85 CALM      30.01S
OKLAHOMA CITY  MOCLDY    50  38  63 SE6       29.98F

......IOWA............

CITY           SKY/WX    TMP DP  RH WIND       PRES   REMARKS
DES MOINES     CLEAR     41  21  44 W8        29.73S
QUAD CITIES    CLEAR     39  33  79 W5        29.69R

......ILLINOIS........

CITY           SKY/WX    TMP DP  RH WIND       PRES   REMARKS
QUINCY         CLEAR     43  28  55 SW9       29.76S
CHICAGO        PTCLDY    42  33  70 W14       29.61S




USA.gov is the U.S. government's official web portal to all federal, state and local government web resources and services.